Weather History for Grove, OK

Change the Weather History Date:

Wednesday, April 3, 2013

  Actual Average (KSLG) Record (KSLG)
Temperature  
Mean Temperature 45 °F -  
Max Temperature 51 °F 61 °F 82 °F (2001)
Min Temperature 39 °F 44 °F 28 °F (2009)
Degree Days  
Heating Degree Days 20    
Moisture  
Dew Point 31 °F    
Average Humidity 59    
Maximum Humidity 100    
Minimum Humidity 40    
Precipitation  
Precipitation 0.00 in - - ()
Sea Level Pressure  
Sea Level Pressure 30.22 in    
Wind  
Wind Speed 5 mph (ENE)    
Max Wind Speed 20 mph    
Max Gust Speed 25 mph    
Visibility 10 miles    
Events      
Averages and records for this station are not official NWS values.
T = Trace of Precipitation, MM = Missing Value Source: NWS Daily Summary

Daily Weather History Graph

Daily Weather History Graph

Search for Another Location

Airport:

Trip Planner

Search our weather history database for the weather conditions in past years. The results will help you decide how hot, cold, wet, or windy it might be!

Date:

Astronomy

Apr. 03, 2013 Rise Set
Actual Time 7:01 AM CDT 7:43 PM CDT
Civil Twilight 6:35 AM CDT 8:09 PM CDT
Nautical Twilight 6:04 AM CDT 8:40 PM CDT
Astronomical Twilight 5:33 AM CDT 9:11 PM CDT
Moon 2:32 AM CDT (4/3) 1:06 PM CDT (4/3)
Length of Visible Light 13h 33m
Length of Day
12h 41m
Last Quarter, 44% of the Moon is Illuminated
Apr 3
Last Quarter
Apr 10
New
Apr 18
First Quarter
Apr 25
Full
May 2
Last Quarter

Hourly Weather History & Observations

Time (CDT) Temp. Windchill Dew Point Humidity Pressure Visibility Wind Dir Wind Speed Gust Speed Precip Events Conditions
12:15 AM 39.2 °F 35.9 °F 39.2 °F 100% 30.22 in 10.0 mi ENE 4.6 mph - N/A   Mostly Cloudy
12:35 AM 39.2 °F 35.9 °F 39.2 °F 100% 30.21 in 10.0 mi ENE 4.6 mph - N/A   Mostly Cloudy
12:55 AM 41.0 °F 38.0 °F 35.6 °F 81% 30.23 in 10.0 mi East 4.6 mph - N/A   Overcast
1:15 AM 41.0 °F 37.1 °F 35.6 °F 81% 30.22 in 10.0 mi NE 5.8 mph - N/A   Overcast
1:35 AM 41.0 °F 37.1 °F 35.6 °F 81% 30.23 in 10.0 mi ENE 5.8 mph - N/A   Overcast
1:55 AM 41.0 °F 38.0 °F 35.6 °F 81% 30.23 in 10.0 mi ENE 4.6 mph - N/A   Overcast
2:15 AM 41.0 °F 38.0 °F 33.8 °F 76% 30.23 in 10.0 mi ENE 4.6 mph - N/A   Overcast
2:35 AM 41.0 °F 36.4 °F 33.8 °F 76% 30.23 in 10.0 mi ENE 6.9 mph - N/A   Overcast
2:55 AM 41.0 °F 37.1 °F 33.8 °F 76% 30.22 in 10.0 mi NE 5.8 mph - N/A   Overcast
3:15 AM 41.0 °F 36.4 °F 33.8 °F 76% 30.20 in 10.0 mi ENE 6.9 mph - N/A   Overcast
3:35 AM 41.0 °F 36.4 °F 33.8 °F 76% 30.20 in 10.0 mi ENE 6.9 mph - N/A   Overcast
3:55 AM 41.0 °F 37.1 °F 33.8 °F 76% 30.20 in 10.0 mi NE 5.8 mph - N/A   Overcast
4:15 AM 41.0 °F 35.2 °F 33.8 °F 76% 30.19 in 10.0 mi NE 9.2 mph - N/A   Overcast
4:35 AM 41.0 °F 35.8 °F 32.0 °F 70% 30.20 in 10.0 mi ENE 8.1 mph - N/A   Overcast
4:55 AM 41.0 °F 39.0 °F 32.0 °F 70% 30.21 in 10.0 mi ENE 3.5 mph - N/A   Overcast
5:15 AM 41.0 °F 38.0 °F 32.0 °F 70% 30.23 in 10.0 mi ENE 4.6 mph - N/A   Overcast
5:35 AM 41.0 °F 38.0 °F 32.0 °F 70% 30.23 in 10.0 mi ENE 4.6 mph - N/A   Overcast
5:55 AM 41.0 °F 38.0 °F 32.0 °F 70% 30.23 in 10.0 mi ENE 4.6 mph - N/A   Overcast
6:15 AM 41.0 °F 38.0 °F 32.0 °F 70% 30.24 in 10.0 mi ENE 4.6 mph - N/A   Overcast
6:35 AM 41.0 °F 37.1 °F 32.0 °F 70% 30.24 in 10.0 mi East 5.8 mph - N/A   Overcast
6:55 AM 41.0 °F 36.4 °F 32.0 °F 70% 30.25 in 10.0 mi East 6.9 mph - N/A   Overcast
7:15 AM 41.0 °F 38.0 °F 30.2 °F 65% 30.26 in 10.0 mi East 4.6 mph - N/A   Overcast
7:35 AM 41.0 °F 35.2 °F 30.2 °F 65% 30.26 in 10.0 mi East 9.2 mph - N/A   Overcast
7:55 AM 41.0 °F 36.4 °F 30.2 °F 65% 30.26 in 10.0 mi ENE 6.9 mph - N/A   Overcast
8:15 AM 42.8 °F 38.0 °F 28.4 °F 57% 30.27 in 10.0 mi ENE 8.1 mph - N/A   Overcast
8:35 AM 42.8 °F 38.0 °F 28.4 °F 57% 30.27 in 10.0 mi ENE 8.1 mph - N/A   Overcast
8:55 AM 42.8 °F 39.3 °F 28.4 °F 57% 30.28 in 10.0 mi ENE 5.8 mph - N/A   Overcast
9:15 AM 42.8 °F 37.5 °F 28.4 °F 57% 30.28 in 10.0 mi East 9.2 mph - N/A   Overcast
9:35 AM 42.8 °F 35.4 °F 26.6 °F 53% 30.27 in 10.0 mi East 15.0 mph 19.6 mph N/A   Overcast
9:55 AM 42.8 °F 35.8 °F 26.6 °F 53% 30.25 in 10.0 mi East 13.8 mph 23.0 mph N/A   Overcast
10:15 AM 44.6 °F 36.6 °F 26.6 °F 49% 30.24 in 10.0 mi East 19.6 mph 24.2 mph N/A   Overcast
10:35 AM 44.6 °F 39.7 °F 26.6 °F 49% 30.26 in 10.0 mi ENE 9.2 mph 25.3 mph N/A   Mostly Cloudy
10:55 AM 44.6 °F 40.2 °F 26.6 °F 49% 30.28 in 10.0 mi ENE 8.1 mph - N/A   Overcast
11:15 AM 44.6 °F 40.7 °F 26.6 °F 49% 30.28 in 10.0 mi East 6.9 mph - N/A   Overcast
11:35 AM 46.4 °F 42.4 °F 26.6 °F 46% 30.28 in 10.0 mi East 8.1 mph - N/A   Overcast
11:55 AM 46.4 °F 44.3 °F 26.6 °F 46% 30.28 in 10.0 mi East 4.6 mph - N/A   Overcast
12:15 PM 46.4 °F 41.9 °F 28.4 °F 50% 30.25 in 10.0 mi East 9.2 mph - N/A   Overcast
12:35 PM 46.4 °F 42.4 °F 26.6 °F 46% 30.24 in 10.0 mi East 8.1 mph - N/A   Overcast
12:55 PM 46.4 °F 43.5 °F 26.6 °F 46% 30.25 in 10.0 mi ENE 5.8 mph - N/A   Overcast
1:15 PM 46.4 °F 43.5 °F 26.6 °F 46% 30.25 in 10.0 mi East 5.8 mph - N/A   Overcast
1:35 PM 48.2 °F - 26.6 °F 43% 30.24 in 10.0 mi East 8.1 mph - N/A   Overcast
1:55 PM 50.0 °F - 26.6 °F 40% 30.24 in 10.0 mi East 5.8 mph - N/A   Overcast
2:15 PM 50.0 °F - 26.6 °F 40% 30.23 in 10.0 mi ENE 9.2 mph - N/A   Overcast
2:35 PM 50.0 °F - 28.4 °F 43% 30.23 in 10.0 mi ENE 8.1 mph - N/A   Overcast
2:55 PM 50.0 °F - 28.4 °F 43% 30.23 in 10.0 mi ENE 8.1 mph - N/A   Overcast
3:15 PM 50.0 °F - 28.4 °F 43% 30.22 in 10.0 mi NE 6.9 mph - N/A   Overcast
3:35 PM 50.0 °F - 28.4 °F 43% 30.22 in 10.0 mi NE 3.5 mph - N/A   Overcast
3:55 PM 50.0 °F - 28.4 °F 43% 30.21 in 10.0 mi NE 3.5 mph - N/A   Overcast
4:15 PM 51.8 °F - 28.4 °F 41% 30.21 in 10.0 mi Calm Calm - N/A   Overcast
4:35 PM 51.8 °F - 28.4 °F 41% 30.20 in 10.0 mi NE 3.5 mph - N/A   Overcast
4:55 PM 51.8 °F - 28.4 °F 41% 30.20 in 10.0 mi NE 5.8 mph - N/A   Overcast
5:15 PM 51.8 °F - 28.4 °F 41% 30.20 in 10.0 mi NE 6.9 mph - N/A   Overcast
5:35 PM 51.8 °F - 28.4 °F 41% 30.20 in 10.0 mi NE 4.6 mph - N/A   Overcast
5:55 PM 51.8 °F - 28.4 °F 41% 30.20 in 10.0 mi Calm Calm - N/A   Overcast
6:15 PM 51.8 °F - 28.4 °F 41% 30.20 in 10.0 mi Calm Calm - N/A   Overcast
6:35 PM 51.8 °F - 30.2 °F 44% 30.20 in 10.0 mi Calm Calm - N/A   Overcast
6:55 PM 51.8 °F - 32.0 °F 47% 30.20 in 10.0 mi Calm Calm - N/A   Overcast
7:15 PM 50.0 °F - 32.0 °F 50% 30.20 in 10.0 mi Calm Calm - N/A   Overcast
7:35 PM 50.0 °F - 32.0 °F 50% 30.20 in 10.0 mi Calm Calm - N/A   Overcast
7:55 PM 50.0 °F - 32.0 °F 50% 30.20 in 10.0 mi Calm Calm - N/A   Overcast
8:15 PM 46.4 °F - 33.8 °F 62% 30.19 in 10.0 mi Calm Calm - N/A   Overcast
8:35 PM 48.2 °F - 32.0 °F 54% 30.19 in 10.0 mi NE 3.5 mph - N/A   Overcast
8:55 PM 48.2 °F - 33.8 °F 58% 30.18 in 10.0 mi ENE 3.5 mph - N/A   Overcast
9:15 PM 50.0 °F - 32.0 °F 50% 30.19 in 10.0 mi Calm Calm - N/A   Overcast
9:35 PM 50.0 °F - 32.0 °F 50% 30.19 in 10.0 mi Calm Calm - N/A   Overcast
9:55 PM 50.0 °F - 32.0 °F 50% 30.20 in 10.0 mi Calm Calm - N/A   Overcast
10:15 PM 48.2 °F - 32.0 °F 54% 30.20 in 10.0 mi Calm Calm - N/A   Overcast
10:35 PM 50.0 °F - 32.0 °F 50% 30.20 in 10.0 mi Calm Calm - N/A   Overcast
10:55 PM 46.4 °F - 35.6 °F 66% 30.19 in 10.0 mi Calm Calm - N/A   Overcast
11:15 PM 46.4 °F 45.2 °F 37.4 °F 71% 30.20 in 10.0 mi SW 3.5 mph - N/A   Overcast
11:35 PM 44.6 °F 43.1 °F 39.2 °F 81% 30.19 in 10.0 mi WSW 3.5 mph - N/A   Overcast
11:55 PM 44.6 °F - 39.2 °F 81% 30.19 in 10.0 mi Calm Calm - N/A   Overcast